(125145) = 2001 UE76

Discovered at Socorro on 2001-10-17 by LINEAR.

Orbit

Orbit type: Main Belt

Note: WebGL enabled browser required.

epoch2023-09-13.0
epoch JD2460200.5
perihelion date2020-05-17.52871
perihelion JD2458987.02871
argument of perihelion (°)323.81644
ascending node (°)89.37602
inclination (°)4.10329
eccentricity0.1898570
perihelion distance (AU)1.9380404
Tisserand w.r.t. Jupiter3.5
ΔV w.r.t. Earth (km/sec)8.8
semimajor axis (AU)2.3922201
mean anomaly (°)323.24488
mean daily motion (°/day)0.26638030
aphelion distance (AU)2.846
period (years)3.7
P-vector [x]0.59761573
P-vector [y]0.75140318
P-vector [z]0.27972970
Q-vector [x]-0.79858373
Q-vector [y]0.52669620
Q-vector [z]0.29129905
absolute magnitude16.29
phase slope0.15
uncertainty0
referenceMPEC 2024-A165
observations used880
oppositions17
arc length (days)8150
first opposition used2001
last opposition used2024
residual rms (arc-secs)0.69
perturbers coarse indicatorM-v
perturbers precise indicator003Ek
first observation date used2001-09-21.0
last observation date used2024-01-14.0
computer nameMPCLINUX
JD of orbit computation2456937.557223
perihelion JD uncertainty (days)4.3215E-05
argument of perihelion uncertainty (°)5.6827E-05
ascending node uncertainty (°)5.5836E-05
inclination uncertainty (°)3.6667E-06
eccentricity uncertainty 4.1751E-08
perihelion distance uncertainty (AU)1.0230E-07
Minimum Orbit Intersection Distances (in AU)
for orbit epoch: 2460200.5, reference: E2024-AG5
Mercury1.62397
Venus1.21587
Earth0.95011
Mars0.42821
Jupiter2.51081
Saturn6.90784
Uranus15.8232
Neptune27.7309

Observations

906 total observations over interval: 2001 09 21.40025 – 2024 01 14.101388
These data are available for download (format description).

Date (UT) J2000 RA J2000 Dec Magn Location Ref
2001 09 21.40025 03 52 22.14 +14 44 02.0 19.2   704 – Lincoln Laboratory ETS, New Mexico MPS 44487
2001 09 21.41522 03 52 22.69 +14 44 03.4 19.4   704 – Lincoln Laboratory ETS, New Mexico MPS 44487
2001 09 21.42972 03 52 23.17 +14 44 05.4 19.6   704 – Lincoln Laboratory ETS, New Mexico MPS 44487
2001 09 21.44414 03 52 23.70 +14 44 06.4 19.6   704 – Lincoln Laboratory ETS, New Mexico MPS 44487
2001 09 21.45855 03 52 24.30 +14 44 07.2 19.2   704 – Lincoln Laboratory ETS, New Mexico MPS 44487
2001 10 13.39216 03 58 55.90 +14 52 24.9 18.2 R 699 – Lowell Observatory-LONEOS MPS 44487
2001 10 13.41715 03 58 55.65 +14 52 24.5   699 – Lowell Observatory-LONEOS MPS 44487
2001 10 13.44219 03 58 55.44 +14 52 24.4   699 – Lowell Observatory-LONEOS MPS 44487
2001 10 13.46712 03 58 55.18 +14 52 23.6   699 – Lowell Observatory-LONEOS MPS 44487
2001 10 17.32749 03 58 12.89 +14 50 40.2 18.8   704 – Lincoln Laboratory ETS, New Mexico MPS 41131
2001 10 17.34316 03 58 12.65 +14 50 40.3 19.7   704 – Lincoln Laboratory ETS, New Mexico MPS 41131
2001 10 17.35861 03 58 12.32 +14 50 39.2 19.3   704 – Lincoln Laboratory ETS, New Mexico MPS 41131
2001 10 17.37555 03 58 11.98 +14 50 37.7 19.6   704 – Lincoln Laboratory ETS, New Mexico MPS 41131
2001 10 17.39134 03 58 11.68 +14 50 37.9 19.3   704 – Lincoln Laboratory ETS, New Mexico MPS 41131
2001 10 22.37284 03 56 26.06 +14 47 24.7 19.1   704 – Lincoln Laboratory ETS, New Mexico MPS 41131
2001 10 22.38938 03 56 25.58 +14 47 23.3 19.0   704 – Lincoln Laboratory ETS, New Mexico MPS 41131
2001 10 22.40591 03 56 25.02 +14 47 22.8 19.2   704 – Lincoln Laboratory ETS, New Mexico MPS 41131
2001 10 22.43897 03 56 24.12 +14 47 20.7 18.9   704 – Lincoln Laboratory ETS, New Mexico MPS 41131
2001 10 23.42137 03 55 56.77 +14 46 37.6 19.1   704 – Lincoln Laboratory ETS, New Mexico MPS 41131
2001 10 23.43784 03 55 56.29 +14 46 35.7 19.9   704 – Lincoln Laboratory ETS, New Mexico MPS 41131
2001 10 23.45431 03 55 55.68 +14 46 35.5 20.0   704 – Lincoln Laboratory ETS, New Mexico MPS 41131
2001 10 23.47079 03 55 55.19 +14 46 34.7 19.2   704 – Lincoln Laboratory ETS, New Mexico MPS 41131
2001 10 23.48726 03 55 54.70 +14 46 32.9 19.0   704 – Lincoln Laboratory ETS, New Mexico MPS 41131
2001 10 24.40602 03 55 27.31 +14 45 50.7 18.2   704 – Lincoln Laboratory ETS, New Mexico MPS 41131
2001 10 24.42239 03 55 26.77 +14 45 49.5 18.7   704 – Lincoln Laboratory ETS, New Mexico MPS 41131
2001 10 24.43877 03 55 26.21 +14 45 49.2 18.4   704 – Lincoln Laboratory ETS, New Mexico MPS 41131
2001 10 24.45516 03 55 25.63 +14 45 48.1 19.1   704 – Lincoln Laboratory ETS, New Mexico MPS 41131
2001 10 24.47169 03 55 25.05 +14 45 47.0 19.0   704 – Lincoln Laboratory ETS, New Mexico MPS 41131
2001 10 25.47301 03 54 53.01 +14 44 58.9 18.5   644 – Palomar Mountain/NEAT MPS 41131
2001 10 25.48344 03 54 52.62 +14 44 58.6 18.7   644 – Palomar Mountain/NEAT MPS 41131
2001 10 25.49397 03 54 52.23 +14 44 57.6 18.8   644 – Palomar Mountain/NEAT MPS 41131
2001 11 09.35507 03 43 28.59 +14 31 44.4 17.7   704 – Lincoln Laboratory ETS, New Mexico MPS 41131
2001 11 09.36983 03 43 27.70 +14 31 43.2 17.9   704 – Lincoln Laboratory ETS, New Mexico MPS 41131
2001 11 09.38391 03 43 26.88 +14 31 42.9 17.8   704 – Lincoln Laboratory ETS, New Mexico MPS 41131
2001 11 09.39975 03 43 25.92 +14 31 41.6 17.8   704 – Lincoln Laboratory ETS, New Mexico MPS 41131
2001 11 09.41386 03 43 25.10 +14 31 40.8 17.8   704 – Lincoln Laboratory ETS, New Mexico MPS 41131
2001 11 15.49958 03 37 29.37 +14 27 12.3 17.8   644 – Palomar Mountain/NEAT MPS 42088
2001 11 15.51023 03 37 28.72 +14 27 11.8 17.8   644 – Palomar Mountain/NEAT MPS 42088
2001 11 15.52234 03 37 27.97 +14 27 11.3 17.9   644 – Palomar Mountain/NEAT MPS 42088
2001 11 17.30252 03 35 41.43 +14 26 13.5 18.9   704 – Lincoln Laboratory ETS, New Mexico MPS 42088
2001 11 17.31713 03 35 40.55 +14 26 13.4 18.7   704 – Lincoln Laboratory ETS, New Mexico MPS 42088
2001 11 17.33257 03 35 39.59 +14 26 12.9 18.7   704 – Lincoln Laboratory ETS, New Mexico MPS 42088
2001 11 17.34737 03 35 38.66 +14 26 11.9 18.4   704 – Lincoln Laboratory ETS, New Mexico MPS 42088
2001 11 18.28773 03 34 42.25 +14 25 45.2 18.5   704 – Lincoln Laboratory ETS, New Mexico MPS 42088
2001 11 18.30273 03 34 41.32 +14 25 45.3 18.8   704 – Lincoln Laboratory ETS, New Mexico MPS 42088
2001 11 18.30666 03 34 41.08 +14 25 46.2 18.6   704 – Lincoln Laboratory ETS, New Mexico MPS 42088
2001 11 18.31773 03 34 40.37 +14 25 45.0 18.8   704 – Lincoln Laboratory ETS, New Mexico MPS 42088
2001 11 18.32152 03 34 40.12 +14 25 44.4 18.9   704 – Lincoln Laboratory ETS, New Mexico MPS 42088
2001 11 18.33273 03 34 39.43 +14 25 45.1 18.8   704 – Lincoln Laboratory ETS, New Mexico MPS 42088
2001 11 18.33652 03 34 39.17 +14 25 44.9 18.9   704 – Lincoln Laboratory ETS, New Mexico MPS 42088
2001 11 18.34773 03 34 38.49 +14 25 45.1 19.0   704 – Lincoln Laboratory ETS, New Mexico MPS 42088
2001 11 18.35125 03 34 38.21 +14 25 44.6 18.8   704 – Lincoln Laboratory ETS, New Mexico MPS 42088
2001 11 18.36610 03 34 37.28 +14 25 44.0 18.7   704 – Lincoln Laboratory ETS, New Mexico MPS 42088
2001 11 20.28709 03 32 42.27 +14 25 01.0 18.1   704 – Lincoln Laboratory ETS, New Mexico MPS 44487
2001 11 20.30198 03 32 41.34 +14 25 00.9 18.1   704 – Lincoln Laboratory ETS, New Mexico MPS 44487
2001 11 20.31665 03 32 40.43 +14 25 01.0 18.3   704 – Lincoln Laboratory ETS, New Mexico MPS 44487
2001 11 20.33132 03 32 39.52 +14 25 00.3 18.2   704 – Lincoln Laboratory ETS, New Mexico MPS 44487
2001 11 20.34600 03 32 38.59 +14 25 00.2 18.1   704 – Lincoln Laboratory ETS, New Mexico MPS 44487
2001 11 20.50925 03 32 28.78 +14 24 58.2 19.2   608 – Haleakala-AMOS MPS 44487
2001 11 20.51973 03 32 28.11 +14 24 59.4 18.9   608 – Haleakala-AMOS MPS 44487
2001 11 20.53020 03 32 27.45 +14 24 58.4 19.3   608 – Haleakala-AMOS MPS 44487
2001 11 24.21626 03 28 51.13 +14 24 28.3 18.1   704 – Lincoln Laboratory ETS, New Mexico MPS 55078
2001 11 24.23061 03 28 50.29 +14 24 28.6 18.1   704 – Lincoln Laboratory ETS, New Mexico MPS 55078
2001 11 24.24611 03 28 49.36 +14 24 28.1 18.5   704 – Lincoln Laboratory ETS, New Mexico MPS 55078
2001 11 24.26034 03 28 48.47 +14 24 28.4 18.5   704 – Lincoln Laboratory ETS, New Mexico MPS 55078
2001 11 24.27482 03 28 47.64 +14 24 28.5 18.3   704 – Lincoln Laboratory ETS, New Mexico MPS 55078
2001 12 08.20373 03 17 17.75 +14 35 01.6 18.2 R 699 – Lowell Observatory-LONEOS MPS 44487
2001 12 08.22887 03 17 16.66 +14 35 03.5   699 – Lowell Observatory-LONEOS MPS 44487
2001 12 08.25386 03 17 15.58 +14 35 05.5   699 – Lowell Observatory-LONEOS MPS 44487
2001 12 08.27888 03 17 14.61 +14 35 08.0   699 – Lowell Observatory-LONEOS MPS 44487
2001 12 11.22228 03 15 28.91 +14 40 18.8 19.0   704 – Lincoln Laboratory ETS, New Mexico MPS 44487
2001 12 11.23811 03 15 28.37 +14 40 21.1 19.3   704 – Lincoln Laboratory ETS, New Mexico MPS 44487
2001 12 11.25378 03 15 27.79 +14 40 22.5 19.2   704 – Lincoln Laboratory ETS, New Mexico MPS 44487
2001 12 11.27020 03 15 27.20 +14 40 24.8 19.5   704 – Lincoln Laboratory ETS, New Mexico MPS 44487
2001 12 11.28591 03 15 26.66 +14 40 26.1 18.9   704 – Lincoln Laboratory ETS, New Mexico MPS 44487
2001 12 14.14991 03 14 01.20 +14 46 33.5 18.6   704 – Lincoln Laboratory ETS, New Mexico MPS 44487
2001 12 14.16512 03 14 00.74 +14 46 35.6 18.7   704 – Lincoln Laboratory ETS, New Mexico MPS 44487
2001 12 14.18038 03 14 00.27 +14 46 38.1 18.3   704 – Lincoln Laboratory ETS, New Mexico MPS 44487
2001 12 14.19562 03 13 59.81 +14 46 39.9 19.3   704 – Lincoln Laboratory ETS, New Mexico MPS 44487
2001 12 14.21072 03 13 59.33 +14 46 42.0 18.7   704 – Lincoln Laboratory ETS, New Mexico MPS 44487
2001 12 17.14728 03 12 50.12 +14 54 06.5 19.5   704 – Lincoln Laboratory ETS, New Mexico MPS 44487
2001 12 17.16244 03 12 49.78 +14 54 09.3 19.6   704 – Lincoln Laboratory ETS, New Mexico MPS 44487
2001 12 17.17762 03 12 49.41 +14 54 12.0 20.0   704 – Lincoln Laboratory ETS, New Mexico MPS 44487
2001 12 17.19280 03 12 49.08 +14 54 15.3 19.2   704 – Lincoln Laboratory ETS, New Mexico MPS 44487
2001 12 17.20812 03 12 48.72 +14 54 17.8 19.2   704 – Lincoln Laboratory ETS, New Mexico MPS 44487
